星链-2077 (STARLINK-2077 )

导读

STARLINK-2077是美国太空探索技术公司Starlink星链卫星互联网项目的一颗卫星,于2021年1月20日发射入轨,属于星链计划低轨卫星星座组网卫星,旨在为全球提供高速低延迟宽带互联网服务,目前该卫星已在轨运行超5年,服务于全球网络覆盖。

基本信息
目录编号:
47363
目录名称:
STARLINK-2077
国际标识:
2021-005Q
轨道中心:
EARTH
卫星名称:
星链-2077
卫星全名:
星链-2077 (STARLINK-2077 )
卫星状态:
已陨落 最后检测时间 2025-01-10
发射日期:
2021-01-20 UTC
国别 :
美国 (US)
星等 :
--
该卫星已列入 空间交会检测服务 Space Conjunction Data Service (SCDS) ,当前飞行风险评估等级: 无高风险
轨道信息
数据来源 国际轨道数据
星历时间: 2025-01-10T09:53:34+0800
轨道信息已过期609天
半长轴: 6565.573km
偏心率: 0.0007388
轨道倾角: 53.028°
近地点辐角 326.144°
升交点赤经 133.621°
平近点角 145.497°
近地点: 182.587km
远地点: 192.289km
周期: 88.241分钟
每日圈数: 16.319011
详细信息
固有亮度:
5
最大亮度:
2.5
卫星平台:
Starlink V1.0
覆盖范围:
全球
运营商:
太空探索技术公司
运营商所在国:
美国
制造商(研发单位):
太空探索技术公司
制造商所在国:
美国
使用方式:
暂无
卫星简介
星链(Starlink)计划是由太空探索技术公司(SpaceX)提出的一个巨型低轨卫星互联网星座项目,计划在2019年至2024年间在太空搭建由约1.2万颗卫星组成的“星链”网络,其中1584颗将部署在地球上空550千米处的近地轨道,并从2020年开始工作。该卫星仍在工作。
与全量物体交会距离演化趋势
与全量物体交会风险概率演化趋势